Weather History for Kindakun Rocks, BC

Change the Weather History Date:

Sunday, November 4, 2012

  Actual Average Record
Temperature  
Mean Temperature 50 °F -  
Max Temperature 56 °F - - ()
Min Temperature 45 °F - - ()
Degree Days  
Heating Degree Days 14    
Moisture  
Dew Point 45 °F    
Average Humidity 80    
Maximum Humidity 93    
Minimum Humidity 67    
Precipitation  
Precipitation 0.12 in - - ()
Sea Level Pressure  
Sea Level Pressure 29.42 in    
Wind  
Wind Speed 32 mph ()    
Max Wind Speed 62 mph    
Max Gust Speed 76 mph    
T = Trace of Precipitation, MM = Missing Value Source: Averaged Metar Reports

Daily Weather History Graph

Daily Weather History Graph

Search for Another Location

Airport:

Trip Planner

Search our weather history database for the weather conditions in past years. The results will help you decide how hot, cold, wet, or windy it might be!

Date:

Astronomy

Nov. 04, 2012 Rise Set
Actual Time 7:56 AM PST 5:11 PM PST
Civil Twilight 7:19 AM PST 5:49 PM PST
Nautical Twilight 6:37 AM PST 6:30 PM PST
Astronomical Twilight 5:57 AM PST 7:11 PM PST
Moon 9:50 PM PST (11/4) 12:53 PM PST (11/4)
Length of Visible Light 10h 29m
Length of Day
9h 15m
Waning Gibbous, 71% of the Moon is Illuminated
Nov 4
Waning Gibbous
Nov 6
Last Quarter
Nov 13
New
Nov 20
First Quarter
Nov 28
Full

Hourly Weather History & Observations

Time (PST) Temp. Dew Point Humidity Pressure Visibility Wind Dir Wind Speed Gust Speed Precip Events Conditions
12:00 AM 50.0 °F 42.8 °F 76% 29.74 in - South 25.3 mph 34.5 mph N/A   Unknown
1:00 AM 50.4 °F 42.8 °F 75% 29.71 in - South 26.5 mph 36.8 mph N/A   Unknown
1:00 AM 50 °F 44 °F 74% 29.70 in - South 32.2 mph - -  
1:00 AM 49.8 °F 44.2 °F 81% 29.70 in - South 32.2 mph 40.3 mph N/A   Unknown
2:00 AM 48.7 °F 42.8 °F 80% 29.65 in - South 33.4 mph 43.7 mph 0.05 in   Unknown
3:00 AM 48.9 °F 41.2 °F 75% 29.58 in - SSE 16.1 mph 24.2 mph N/A   Unknown
4:00 AM 48 °F 42 °F 74% 29.47 in - SE 12.7 mph - -  
4:00 AM 48.4 °F 42.3 °F 79% 29.47 in - SE 12.7 mph 19.6 mph 0.06 in   Unknown
5:00 AM 53.8 °F 45.7 °F 74% 29.37 in - SSE 21.9 mph 39.1 mph 0.01 in   Unknown
6:00 AM 54.7 °F 49.3 °F 82% 29.29 in - SSE 32.2 mph 44.9 mph N/A   Unknown
7:00 AM 56 °F 51 °F 77% 29.20 in - South 46.0 mph - -  
7:00 AM 55.6 °F 50.7 °F 84% 29.20 in - South 46.0 mph 59.8 mph N/A   Unknown
8:00 AM 54.5 °F 51.4 °F 89% 29.13 in - South 52.9 mph 66.7 mph 0.01 in   Unknown
9:00 AM 55.4 °F 51.1 °F 85% 29.11 in - South 52.9 mph 67.9 mph 0.01 in   Unknown
10:00 AM 53 °F 46 °F 69% 29.13 in - South 51.8 mph - -  
10:00 AM 52.7 °F 45.7 °F 77% 29.13 in - South 51.8 mph 63.3 mph 0.03 in   Unknown
11:00 AM 50.7 °F 44.6 °F 80% 29.08 in - South 50.6 mph 67.9 mph 0.02 in   Unknown
12:00 PM 47.5 °F 45.0 °F 91% 29.10 in - South 58.7 mph 73.6 mph N/A   Unknown
1:00 PM 47 °F 45 °F 90% 29.11 in - SSW 62.1 mph - -  
1:00 PM 46.9 °F 45.0 °F 93% 29.11 in - SSW 62.1 mph 76.0 mph 0.02 in   Unknown
2:00 PM 47.8 °F 45.1 °F 90% 29.20 in - SSW 57.5 mph 76.0 mph 0.01 in   Unknown
3:00 PM 48.7 °F 44.6 °F 86% 29.28 in - SW 46.0 mph 63.3 mph 0.03 in   Unknown
4:00 PM 49 °F 44 °F 78% 29.38 in - SW 46.0 mph - -  
4:00 PM 49.1 °F 44.2 °F 83% 29.38 in - SW 46.0 mph 61.0 mph 0.02 in   Unknown
5:00 PM 49.3 °F 43.9 °F 82% 29.46 in - SW 41.4 mph 54.1 mph 0.02 in   Unknown
6:00 PM 48.7 °F 44.1 °F 84% 29.55 in - SW 41.4 mph 57.5 mph 0.02 in   Unknown
7:00 PM 49 °F 44 °F 76% 29.60 in - SW 35.7 mph - -  
7:00 PM 49.1 °F 43.9 °F 82% 29.60 in - SW 35.7 mph 46.0 mph 0.02 in   Unknown
8:00 PM 49.5 °F 41.4 °F 74% 29.68 in - SW 38.0 mph 49.5 mph 0.01 in   Unknown
9:00 PM 48.9 °F 42.4 °F 78% 29.74 in - WSW 31.1 mph 40.3 mph N/A   Unknown
10:00 PM 49 °F 42 °F 67% 29.79 in - WSW 34.5 mph - -  
10:00 PM 49.3 °F 41.5 °F 75% 29.79 in - WSW 34.5 mph 46.0 mph N/A   Unknown